Location: Prague
(50.0830°N, 14.4670°E)
Time: 08:34:18
(UTC+01:00)

XW-2F - Pass Details

Date: 29 November 2021
Orbit: 494 x 515 km, 97.5° (Epoch: 18 January)

Event Time Altitude Azimuth Distance (km) Brightness Sun altitude
Rises 18:39:18 0° 217° (SW) 2,598 ? -24.1°
Reaches altitude 10° 18:42:41 10° 251° (WSW) 1,727 ? -24.6°
Maximum altitude 18:44:01 12° 272° (W) 1,634 ? -24.8°
Drops below altitude 10° 18:45:21 10° 293° (WNW) 1,738 ? -25.1°
Sets 18:48:48 0° 328° (NNW) 2,639 ? -25.6°
